CZ-6A DEB

Satellite information

Favourite Embed

Satellite Type and Status

DEBRISIN ORBIT

Key statistics

Satellite CZ-6A DEB at a glance.

Uptime

275

Days in orbit

Revolutions

≈ 14.5

Per day

Orbit

LEO

Low Earth Orbit

Inclination

89.0

Latest

Satellite identification and parameters

Extended collection of information and parameters for CZ-6A DEB.

Object identification

Identified? True

Debris? True

Object name: CZ-6A DEB

International designator: 2024-140DT

Object number (NORAD): 60714

Object ID (CCSDS): 60714

Country: PEOPLES REPUBLIC OF CHINA (PRC)

Current information (Y/N): Y

RCS size: SMALL

Orbital parameters

Period: 99.319 minutes

Inclination: 89.0481 deg

SMA: 7104.204 km

Apoapsis: 803.529 km

Periapsis: 648.609 km

RAAN: 320.4683 deg

Eccentricy: 0.0109034

Argument of periapsis: 232.0687 deg

Mean anomaly: 127.0627 deg

Mean motion: 14.49871915 rev/day

Mean motion (dot): 0.00001567 rev/day2

B* drag term: 0.00037224 1/REarth

Two-line elements (TLE)

Creation date: May 8, 2025, 3:01 a.m.

Reference frame: TEME

Reference center: EARTH

Epoch: May 7, 2025, 12:58 p.m. UTC

TLE line 0: 0 CZ-6A DEB

TLE line 1: 1 60714U 24140DT 25127.54072377 .00001567 00000-0 37224-3 0 9991

TLE line 2: 2 60714 89.0481 320.4683 0109034 232.0687 127.0627 14.49871915 38893

Live tracking on map

Real-time ground track for satellite CZ-6A DEB.

In-orbit conjunctions

A list of the most updated potential collisions computed for object CZ-6A DEB.

Target Orbit TCA Probability of collision Miss distance Type
COSMOS 2506 DEB SSO 2025-05-05 09:15:31 0.0001337823 334.0 (m) DEBRIS
FENGYUN 1C DEB SSO 2025-02-01 18:33:31 0.0001314902 206.0 (m) DEBRIS
CZ-6A DEB LEO 2025-01-25 15:46:25 0.0004730426 610.0 (m) DEBRIS
CZ-6A DEB SSO 2024-12-16 06:40:17 0.0004775242 85.0 (m) DEBRIS
FENGYUN 1C DEB SSO 2024-11-25 23:38:19 0.0001651621 411.0 (m) DEBRIS

Associated space launch

18 Low Earth Orbit communication satellites with Ku, Q and V band payloads for the G60 constellation operated by Shanghai Spacecom Satellite Technology (SSST) with funding backed by the Shanghai local government. Initial constellation will consist of 1296 satellites by 2027 with long term plans to expand it to 12000 satellites.

CZ-6A DEB was lifted into orbit during the mission ‘Long March 6A | G60 Polar Group 01’, on board a Long March 6A space rocket.

The launch took place on Aug. 6, 2024, 6:42 a.m. from Launch Complex 9A.

For more information about the launch, click the button.

Launch to space Long March 6A | G60 Polar Group 01
Long March 6A | G60 Polar Group 01

Agency: N/A

Status: Launch Successful

Launch date: Aug. 6, 2024, 6:42 a.m. UTC

Rocket: Long March 6A

Launch pad: Launch Complex 9A

Location: Taiyuan Satellite Launch Center, People's Republic of China

...

Latest news about this satellite

News about space launch
Brightness of first Chinese broadband constellation satellites alarms astronomers

The first satellites of a Chinese broadband constellation are significantly brighter than those of Western systems, posing a new challenge for astronomers.

News about space launch
Chinese rocket stage breaks up into cloud of more than 700 pieces of space debris

HELSINKI — A Chinese Long March 6A rocket’s upper stage has fragmented into a cloud of over 700 pieces of space debris, adding to concerns about long-term orbital safety. China […]

News about space launch
China's Thousand Sails Megaconstellation Kicks Off with Dangerous Debris Field

China's Thousand Sails Megaconstellation Kicks Off with Dangerous Debris Field


Newsletter sign-up

Weekly statistics, charts and insights to help you stay on top of the space industry.